Location: Moena
(46.3667°N, 11.6500°E)
Time: 14:49:40
(UTC+00:00)

Cosmos 2333 Rocket - Pass Details

Date: 22 June 2021
Orbit: 841 x 861 km, 70.8° (Epoch: 26 July)

Event Time Altitude Azimuth Distance (km) Brightness Sun altitude
Rises 21:36:33 0° 239° (WSW) 3,425 5.3 -16.7°
Reaches altitude 10° 21:39:18 10° 250° (WSW) 2,490 4.7 -16.9°
Maximum altitude 21:44:17 30° 310° (NW) 1,497 4.1 -17.2°
Drops below altitude 10° 21:49:16 10° 11° (N) 2,490 5.5 -17.5°
Sets 21:52:03 0° 22° (NNE) 3,426 6.1 -17.7°
